TimeMST,TemperatureF,Dew PointF,Humidity,Sea Level PressureIn,VisibilityMPH,Wind Direction,Wind SpeedMPH,Gust SpeedMPH,PrecipitationIn,Events,Conditions,WindDirDegrees,DateUTC
12:53 AM,30.9,25.0,79,30.01,10.0,North,4.6,-,N/A,,Mostly Cloudy,10,2011-11-12 07:53:00
1:53 AM,30.9,26.1,82,30.01,10.0,Calm,Calm,-,N/A,,Overcast,0,2011-11-12 08:53:00
2:53 AM,32.0,27.0,82,29.99,10.0,ENE,3.5,-,N/A,,Overcast,70,2011-11-12 09:53:00
3:53 AM,30.9,27.0,85,29.99,10.0,Calm,Calm,-,N/A,,Overcast,0,2011-11-12 10:53:00
4:53 AM,32.0,26.1,79,29.98,10.0,East,5.8,-,N/A,,Overcast,90,2011-11-12 11:53:00
5:53 AM,32.0,26.1,79,29.99,10.0,ENE,4.6,-,N/A,,Mostly Cloudy,70,2011-11-12 12:53:00
6:53 AM,30.0,25.0,82,30.01,10.0,Calm,Calm,-,N/A,,Partly Cloudy,0,2011-11-12 13:53:00
7:53 AM,34.0,27.0,75,30.01,10.0,East,3.5,-,N/A,,Partly Cloudy,90,2011-11-12 14:53:00
8:53 AM,35.1,26.1,70,30.03,10.0,East,5.8,-,N/A,,Overcast,80,2011-11-12 15:53:00
9:53 AM,39.0,27.0,62,30.01,10.0,East,6.9,-,N/A,,Mostly Cloudy,80,2011-11-12 16:53:00
10:53 AM,43.0,26.1,51,29.99,10.0,East,4.6,-,N/A,,Mostly Cloudy,80,2011-11-12 17:53:00
11:53 AM,46.9,19.9,34,29.94,10.0,Variable,3.5,-,N/A,,Mostly Cloudy,0,2011-11-12 18:53:00
12:53 PM,48.0,21.9,36,29.91,10.0,NNW,3.5,-,N/A,,Overcast,340,2011-11-12 19:53:00
1:53 PM,50.0,21.0,32,29.87,10.0,Calm,Calm,-,N/A,,Overcast,0,2011-11-12 20:53:00
2:53 PM,48.9,21.0,33,29.86,10.0,Calm,Calm,-,N/A,,Overcast,0,2011-11-12 21:53:00
3:53 PM,50.0,19.9,31,29.85,10.0,West,5.8,-,N/A,,Mostly Cloudy,280,2011-11-12 22:53:00
4:53 PM,48.0,23.0,37,29.85,10.0,SW,8.1,-,N/A,,Mostly Cloudy,230,2011-11-12 23:53:00
5:53 PM,46.0,25.0,44,29.86,10.0,WSW,4.6,-,N/A,,Overcast,240,2011-11-13 00:53:00
6:53 PM,45.0,26.1,48,29.89,10.0,WSW,5.8,-,N/A,,Overcast,250,2011-11-13 01:53:00
7:53 PM,45.0,26.1,48,29.89,10.0,West,6.9,-,N/A,,Overcast,270,2011-11-13 02:53:00
8:53 PM,46.0,25.0,44,29.88,10.0,West,17.3,26.5,N/A,,Scattered Clouds,270,2011-11-13 03:53:00
9:53 PM,44.1,26.1,49,29.91,10.0,West,10.4,-,N/A,,Overcast,270,2011-11-13 04:53:00
10:53 PM,43.0,26.1,51,29.90,10.0,West,11.5,-,N/A,,Overcast,260,2011-11-13 05:53:00
11:53 PM,41.0,25.0,53,29.88,10.0,West,11.5,-,N/A,,Mostly Cloudy,260,2011-11-13 06:53:00